RH
12 12 12 12 12 12 12 11 11 10 9 7 6 8 11 14 13 12 11 9 8 7 7 7 6 6 6 6 6 6 5 5 5 5 6 5 5 5 5 5 5 5 5 5 6 6 7 7 7 8 8 8 7 8 11 15 20 21 20 20 18 18 16 13 13 12 11 9 10 11 11 12 11 12 12 14 16 13 17 18 17 25 34 37 33 34 43 48
9 9 9 9 9 9 8 8 8 6 6 5 4 5 8 13 13 12 11 9 8 7 7 7 7 6 6 6 6 5 5 5 5 5 6 5 5 5 5 5 5 5 5 5 6 6 7 7 7 7 7 8 8 10 13 15 18 20 20 20 19 17 12 9 12 11 10 11 10 11 11 12 12 13 11 12 16 16 23 26 20 22 30 36 31 27 33 42
5 5 5 5 5 5 5 5 4 4 3 3 3 4 7 12 14 12 11 9 8 7 8 7 7 6 5 6 6 6 6 5 4 6 6 5 6 6 5 5 5 5 5 6 6 6 7 7 11 13 11 12 13 14 14 14 16 18 18 19 19 17 13 10 11 11 10 11 11 11 11 12 13 12 12 12 15 17 22 25 25 27 28 29 26 20 23 34
3 4 3 3 3 3 3 3 3 3 3 3 4 5 8 12 14 13 11 9 8 7 8 7 7 6 6 6 5 6 5 5 11 12 8 6 6 6 6 5 5 6 5 6 5 6 7 7 19 26 22 18 16 17 17 16 15 16 18 18 17 16 15 13 13 11 10 10 10 12 11 12 13 12 12 12 13 14 16 22 29 32 31 33 29 20 22 29
3 3 2 3 3 2 3 3 3 3 3 4 5 7 9 14 15 13 11 9 8 8 8 8 7 6 6 5 6 6 6 16 26 21 14 11 8 5 6 6 6 6 5 6 5 6 6 10 24 29 26 22 18 17 17 16 16 16 18 18 16 14 14 13 13 11 11 11 10 12 11 12 12 12 12 11 13 13 15 22 27 34 40 45 39 28 26 30
3 3 2 3 3 3 3 3 4 5 5 6 7 9 12 16 16 14 12 9 8 8 8 8 7 6 6 5 6 6 10 25 30 23 21 17 12 10 7 6 6 6 5 5 6 8 8 13 25 28 25 22 19 18 16 15 15 15 16 16 15 14 14 13 11 11 11 11 10 11 11 12 12 11 12 11 12 12 16 20 23 40 49 45 42 40 37 34
3 3 3 3 3 4 5 5 7 7 8 9 10 13 16 17 16 14 12 10 9 8 8 8 7 6 6 5 6 7 10 21 22 17 16 12 12 15 11 8 6 6 7 5 6 10 11 16 24 25 21 18 16 16 14 14 14 14 14 14 14 13 13 12 11 11 11 10 11 12 11 11 10 11 12 11 14 13 15 16 20 42 50 42 40 45 46 40
4 3 3 3 3 4 6 7 9 11 12 13 16 18 19 18 16 15 12 10 9 8 8 8 7 6 5 5 5 8 7 10 16 14 10 8 9 11 12 11 7 6 7 5 8 10 12 16 19 19 17 15 13 12 12 13 13 13 14 13 13 13 12 12 11 11 10 10 11 11 11 10 9 12 11 13 21 20 22 23 20 30 42 45 41 43 47 46
5 4 4 3 3 4 6 9 12 15 18 20 21 20 19 18 17 16 13 11 9 9 9 7 8 6 6 6 5 15 17 14 22 18 9 8 8 7 10 11 8 7 6 8 13 11 11 15 15 14 14 12 12 12 12 12 12 11 12 12 12 12 12 12 11 10 10 11 11 11 11 10 10 13 10 14 22 23 31 34 27 28 38 48 47 47 52 51
4 4 4 4 3 4 6 10 14 19 23 24 23 21 19 19 18 17 13 11 10 9 9 7 9 6 6 7 6 23 29 20 24 19 8 7 6 7 8 9 9 7 6 11 15 12 14 18 16 15 15 14 14 13 12 13 13 11 11 12 12 12 12 12 10 9 10 11 11 11 11 11 11 13 12 14 19 29 40 36 30 35 39 46 50 54 56 53
4 4 4 4 4 3 4 8 14 20 25 24 23 21 20 19 18 17 14 12 10 9 9 8 8 6 8 8 9 29 32 15 14 13 8 7 6 6 6 8 8 7 9 13 15 16 21 20 17 18 19 18 16 14 14 14 13 12 12 11 12 12 12 12 10 9 10 11 11 11 12 13 12 13 13 12 18 33 42 34 34 40 40 43 47 53 57 56
4 3 4 4 4 4 3 5 9 17 22 23 23 22 21 20 18 18 15 13 11 9 9 8 8 7 7 8 12 28 28 12 8 9 7 7 6 6 6 7 7 9 12 15 18 21 23 20 18 19 21 20 17 15 16 15 12 12 12 11 12 13 13 12 12 10 10 11 12 13 13 13 12 12 12 15 22 33 38 39 41 40 37 41 43 46 54 58
4 3 3 4 4 4 3 4 5 9 16 20 22 23 22 21 19 18 16 14 12 10 10 8 8 7 8 11 15 21 20 14 9 8 7 7 7 6 6 7 9 12 16 23 26 23 21 21 20 20 21 20 18 18 19 16 15 13 12 13 13 13 13 12 12 12 11 11 11 13 13 12 12 12 14 19 26 31 35 41 40 35 33 39 45 45 49 57
3 3 4 4 4 4 4 4 4 5 8 13 17 20 22 22 20 19 17 15 12 10 10 9 8 8 8 13 17 17 17 14 11 9 8 7 7 6 5 6 9 15 21 27 29 24 22 21 20 21 22 19 19 20 20 18 17 15 13 14 14 13 11 10 12 12 12 11 11 13 12 12 11 12 19 23 27 31 34 37 36 35 35 36 42 42 44 54
4 4 4 4 5 4 4 4 4 4 4 6 10 13 17 20 20 19 18 16 14 11 10 9 8 9 9 15 23 22 18 14 12 10 8 7 7 6 6 5 7 13 19 25 28 26 25 23 19 19 20 19 20 20 18 17 16 16 16 15 14 13 12 11 11 11 12 11 11 12 11 12 11 12 26 31 27 28 32 34 34 36 38 39 43 44 46 52
4 5 4 4 5 4 4 4 4 4 4 5 6 10 14 17 20 21 20 17 14 12 11 9 9 9 10 21 30 25 17 13 13 11 7 8 8 7 8 8 7 10 18 24 27 25 22 21 17 15 18 19 21 21 18 17 15 15 16 15 14 12 12 12 11 11 12 11 11 11 11 12 11 12 26 31 25 26 30 29 29 33 38 41 44 49 51 53
5 5 4 5 5 4 5 4 5 4 4 5 6 9 11 13 16 18 21 20 16 12 11 10 10 9 13 23 30 28 21 15 13 11 9 10 10 12 15 11 8 12 17 20 21 21 18 17 16 16 19 20 21 23 22 19 16 16 16 14 14 13 12 11 11 11 12 11 11 11 12 12 12 16 23 23 22 28 29 26 26 33 39 40 43 47 48 50
6 5 4 4 4 5 5 4 5 4 5 5 7 16 21 24 27 26 22 17 17 15 11 10 9 15 28 33 35 35 30 22 15 12 12 13 13 18 21 17 16 18 19 20 20 22 20 18 19 20 22 23 21 21 20 18 19 23 23 19 18 17 15 12 11 12 11 12 12 12 13 12 12 16 19 18 20 22 24 29 32 34 36 37 40 43 42 44
8 7 6 5 5 5 5 5 5 5 7 5 12 34 44 46 52 59 50 30 19 13 12 19 18 25 38 37 38 39 34 28 21 16 16 18 18 21 24 22 23 24 23 24 23 22 22 20 23 24 24 24 22 20 20 21 25 27 25 23 21 19 16 13 12 13 12 12 12 13 14 12 12 14 14 15 17 16 20 33 38 33 33 34 37 41 39 41
8 8 8 7 6 6 4 5 5 6 8 6 24 54 58 52 59 72 69 51 31 13 19 38 30 27 38 36 39 43 38 33 26 23 21 20 22 23 24 24 25 25 24 25 24 23 23 23 23 23 24 25 28 30 31 31 31 27 24 22 20 18 17 14 13 14 14 13 14 14 14 13 13 13 14 14 16 16 17 31 42 38 35 32 34 40 38 40
9 9 9 8 8 7 5 5 5 7 8 7 26 53 54 45 52 61 56 49 40 17 21 43 32 24 36 36 39 42 38 35 30 28 26 22 23 23 22 25 26 26 24 25 25 25 25 24 21 21 23 27 32 34 32 30 28 24 22 21 19 18 17 16 16 16 16 15 15 17 16 15 15 16 17 16 16 18 17 25 35 36 37 33 30 33 34 38
8 9 9 9 8 8 8 7 6 7 10 13 25 42 47 42 50 60 45 30 28 18 19 37 34 29 35 34 36 40 38 35 31 28 27 25 22 20 22 24 24 24 25 25 25 25 27 26 22 21 22 26 30 29 27 26 24 23 21 20 20 18 17 17 17 19 20 17 16 18 18 17 17 16 19 18 17 19 20 20 22 27 35 35 29 27 30 34
9 9 10 9 9 9 9 8 8 9 12 21 32 36 36 37 47 52 38 22 18 16 16 23 28 29 35 36 33 37 37 33 31 28 26 25 20 21 25 22 20 22 24 25 24 24 26 26 24 23 22 25 28 26 24 24 23 22 21 19 19 18 18 19 20 21 23 20 18 18 18 18 17 16 18 19 18 20 21 20 21 24 27 30 33 33 31 32
9 10 10 10 11 9 9 10 8 9 14 28 43 40 32 37 46 41 33 29 18 14 17 21 29 29 30 37 35 36 36 31 32 31 28 25 19 21 25 23 21 21 22 23 22 23 23 23 24 26 25 25 26 25 23 22 21 19 19 19 19 18 18 19 21 23 24 23 22 19 18 18 16 17 20 19 18 20 21 21 22 24 23 31 44 46 40 37
10 11 10 10 11 9 11 10 7 19 37 51 56 55 51 48 47 41 37 36 19 14 29 35 39 36 27 31 34 34 35 29 29 31 30 28 23 23 23 23 23 21 21 20 20 22 22 20 23 27 27 24 24 24 23 23 22 20 21 22 21 18 17 19 23 25 24 26 25 23 28 27 17 14 19 18 16 17 21 21 21 24 24 27 37 41 43 47
10 11 10 10 11 10 11 11 15 29 41 49 56 67 69 48 39 40 40 48 35 19 34 42 39 35 27 28 31 31 32 28 27 30 30 29 27 25 22 22 23 20 20 20 19 21 21 22 23 24 25 24 24 24 24 23 23 23 24 25 24 21 20 21 23 24 24 27 26 25 32 34 23 18 20 19 18 18 20 21 21 24 25 23 25 30 41 49
9 11 11 10 11 10 11 13 21 28 27 38 59 71 60 33 32 41 45 67 63 32 35 42 33 28 23 24 29 30 29 26 26 30 29 28 28 25 22 23 22 20 20 19 19 20 22 24 23 22 22 23 24 25 24 22 21 23 24 25 26 24 24 25 25 26 24 24 25 25 28 30 26 23 22 20 20 20 20 23 25 24 25 26 25 31 41 44
9 10 10 10 11 10 11 12 15 25 33 44 57 53 38 27 32 43 57 77 65 37 37 37 28 26 22 23 27 28 28 27 27 28 27 28 28 24 22 23 23 23 23 20 18 20 22 23 23 24 24 24 27 26 24 23 22 22 23 25 26 25 26 26 27 27 25 24 25 25 26 29 29 24 21 22 20 20 22 24 25 26 27 28 27 29 34 35
10 10 10 10 11 10 11 11 10 22 31 33 31 23 21 27 27 41 72 77 47 31 35 31 26 26 23 28 31 29 28 27 27 26 25 26 26 24 22 23 23 24 23 21 20 20 20 21 22 24 25 25 25 25 22 21 22 22 24 27 27 27 27 27 30 28 26 31 31 26 26 30 31 24 22 25 21 20 25 26 27 29 29 28 28 29 33 41
11 11 10 10 10 11 11 10 9 14 16 14 13 9 12 15 20 51 84 69 38 32 33 28 27 25 24 30 33 31 28 27 27 27 28 28 27 26 24 24 25 24 23 23 22 21 19 19 21 21 23 24 23 24 22 20 23 23 24 26 26 28 27 26 29 25 28 39 35 28 27 30 35 30 23 25 24 22 25 27 30 31 30 29 30 32 37 45
11 11 12 10 10 11 10 10 12 14 13 9 9 11 10 8 25 66 81 56 39 39 33 29 29 27 26 29 30 30 28 27 27 27 29 29 28 28 27 26 25 24 24 24 23 22 20 19 21 20 21 22 21 22 21 21 23 23 24 25 25 26 26 28 28 25 39 51 38 29 30 32 37 33 25 25 26 24 24 26 29 31 32 34 35 38 45 49
9 10 11 12 11 10 10 10 11 15 16 12 11 9 10 25 49 65 57 42 40 39 33 31 29 29 30 28 29 29 28 28 27 26 28 28 26 27 27 26 25 24 23 22 23 23 22 21 22 23 22 21 19 20 20 19 19 21 22 23 23 27 35 45 44 37 47 52 37 31 34 35 35 30 26 27 27 27 26 27 29 30 32 34 35 40 49 51
7 8 9 11 12 10 11 11 10 14 13 11 13 7 19 56 73 59 43 41 40 34 34 34 28 27 28 27 28 27 26 27 26 26 26 24 25 25 26 26 24 24 24 24 25 25 26 25 24 24 24 21 19 18 18 17 16 18 20 20 24 32 46 58 54 47 51 46 33 31 35 38 36 30 28 28 26 28 28 29 32 31 32 35 37 38 42 42
6 7 7 8 10 10 12 11 10 13 11 12 10 7 35 71 63 40 36 41 42 36 34 35 30 26 25 24 26 25 24 25 24 26 25 23 23 23 26 28 26 25 23 24 27 27 30 31 28 26 24 22 21 18 18 17 16 17 18 19 22 26 39 51 49 51 54 42 31 33 35 38 38 33 31 29 27 30 31 30 32 33 33 36 39 39 39 38
5 6 6 6 8 10 12 12 11 12 11 14 10 12 50 70 42 24 27 27 31 30 26 29 31 29 26 23 24 24 25 27 25 24 24 25 25 23 25 27 26 26 24 25 28 27 28 28 26 26 24 22 21 18 17 17 16 17 18 19 21 21 27 35 37 39 38 35 36 35 31 32 34 33 33 31 30 32 33 34 35 37 39 40 40 39 40 40
5 5 5 5 5 8 11 11 12 12 12 14 14 17 37 42 26 28 34 29 27 25 22 25 28 29 28 24 24 23 23 26 26 26 27 25 24 23 24 25 26 26 25 25 26 25 23 22 21 22 22 22 20 18 17 17 17 18 17 17 20 22 22 26 30 30 28 37 42 31 25 30 33 34 33 32 32 32 34 37 37 37 39 41 40 38 38 41
6 5 4 5 5 6 10 12 13 13 13 16 20 20 18 16 18 31 40 36 31 26 23 24 26 30 29 25 24 22 21 22 23 26 28 25 24 23 22 23 23 24 26 25 24 23 22 21 20 19 19 19 18 18 18 17 17 17 17 16 16 18 21 24 29 32 35 43 41 27 24 31 35 36 34 32 32 31 31 33 33 33 35 36 37 37 36 34
6 5 4 5 5 4 8 16 20 16 14 19 21 18 14 13 18 30 39 39 34 27 23 22 25 30 29 27 26 24 23 23 23 24 24 24 26 25 22 21 21 23 26 25 23 23 23 22 21 20 20 19 17 19 19 17 18 18 16 16 15 16 20 21 26 35 41 45 42 31 25 30 35 35 33 32 30 30 32 33 32 33 37 36 33 31 28 26
4 4 6 8 9 10 11 22 34 29 21 23 22 18 15 10 9 19 31 34 28 24 23 23 23 23 23 23 24 25 25 24 24 25 23 24 28 29 25 23 23 25 26 25 25 25 23 23 22 21 22 20 17 18 18 18 19 19 18 16 13 16 20 20 22 29 36 42 43 39 35 36 40 38 34 33 31 33 37 40 39 37 39 39 36 32 27 25
6 4 10 22 29 24 20 38 60 52 31 23 19 17 17 15 14 20 28 29 26 23 22 23 22 19 19 20 21 23 23 24 25 26 26 26 28 31 29 25 26 27 27 27 26 25 23 24 24 24 25 24 20 18 18 19 19 19 20 20 20 24 25 24 24 24 29 41 48 51 50 43 39 39 37 35 34 34 38 44 48 46 44 45 45 39 32 29
8 3 16 40 52 41 35 55 69 55 34 23 17 15 19 24 26 28 31 30 28 27 26 26 24 21 19 20 23 24 23 23 24 28 31 28 25 29 28 25 26 27 27 27 26 27 27 27 27 25 26 24 21 20 18 19 19 19 20 22 24 27 27 32 40 34 29 36 45 57 62 48 39 40 38 37 38 37 40 46 51 50 48 49 49 46 38 31
8 13 34 53 60 54 52 58 55 43 38 29 20 22 30 33 31 30 30 28 29 32 32 28 25 21 19 19 22 25 25 25 25 27 29 27 28 30 28 25 25 25 26 27 26 28 29 29 28 26 27 26 24 23 21 19 19 17 19 22 24 25 24 32 45 40 29 29 35 48 57 47 39 41 38 38 41 41 43 46 48 51 51 49 50 49 45 38
9 22 49 58 60 61 56 53 49 49 50 41 34 38 40 38 35 31 29 27 28 30 30 27 24 20 19 20 22 24 25 24 25 25 24 25 29 33 31 28 26 26 27 25 26 28 26 25 23 21 23 23 21 21 18 18 18 14 16 21 21 23 22 24 31 30 26 27 29 39 49 44 41 44 41 41 43 46 48 46 49 57 57 54 54 52 51 44
11 24 52 62 63 65 58 52 49 48 48 46 43 41 38 36 33 30 29 27 29 30 28 27 25 22 22 23 23 25 25 25 25 25 24 24 28 33 33 30 28 27 27 26 27 29 27 25 25 26 29 30 27 23 18 17 20 18 19 22 21 23 23 24 25 25 26 28 27 35 46 46 44 45 42 41 42 49 55 52 52 59 62 60 57 54 53 47
16 30 55 63 61 57 51 48 48 46 44 42 39 37 37 39 35 30 29 28 30 32 30 28 29 30 29 27 27 28 28 26 26 26 25 24 27 31 30 30 30 27 27 28 27 26 25 26 31 37 43 46 43 35 26 22 23 22 23 24 24 24 24 25 26 26 30 33 29 33 42 46 45 43 40 41 43 48 55 56 54 60 65 64 61 59 57 53
35 51 62 65 65 59 52 51 48 45 43 38 33 32 33 37 37 33 32 31 31 33 33 31 30 32 32 30 29 31 32 30 27 27 27 25 24 27 29 30 31 29 28 29 27 26 25 24 27 33 40 43 42 36 30 26 24 24 25 25 25 26 25 25 26 27 29 31 31 31 36 41 43 40 38 40 44 47 51 54 56 59 64 67 70 70 66 63
62 72 66 65 69 62 58 61 55 50 50 45 40 38 37 38 40 38 37 37 36 36 36 32 28 30 33 31 29 31 33 32 30 29 29 28 26 27 30 31 32 33 32 30 29 29 28 25 24 27 30 33 33 31 27 24 23 24 25 25 25 26 26 26 27 28 28 31 34 32 32 36 37 37 38 39 41 44 45 49 54 58 62 68 73 73 70 69
70 81 75 69 68 64 63 64 62 61 61 55 50 50 49 48 47 46 44 41 40 41 40 36 34 34 35 36 36 36 32 29 31 33 29 30 34 33 32 32 34 36 36 34 32 31 30 28 26 25 27 29 29 29 28 27 28 28 27 28 28 27 28 29 28 29 30 32 33 32 31 34 35 35 37 39 40 41 43 45 49 54 58 62 64 65 68 70
44 65 76 67 62 72 73 61 58 61 58 54 54 52 50 51 52 54 54 48 45 47 44 45 47 44 43 43 39 40 47 47 46 44 34 30 37 39 38 39 40 38 38 37 36 35 34 34 34 35 37 38 39 39 39 36 34 32 30 30 31 30 30 31 30 30 32 31 32 33 32 33 37 38 37 38 41 42 41 42 46 52 54 53 53 56 61 65
18 33 49 45 45 61 65 54 52 56 53 52 55 53 50 49 49 50 53 50 49 49 48 50 52 52 55 55 46 49 67 70 61 53 43 36 39 43 46 48 47 44 42 41 40 39 38 41 46 46 47 48 47 44 42 40 38 37 35 33 33 32 30 31 32 31 32 33 34 36 35 35 39 39 37 39 41 42 43 41 44 50 52 51 52 57 62 62
20 18 24 35 45 54 57 56 54 55 57 59 60 58 56 55 52 48 49 51 50 51 51 51 51 54 60 62 58 61 70 70 61 54 48 43 43 46 49 51 52 50 46 44 45 46 45 45 47 48 51 53 50 47 45 44 42 40 38 36 35 33 32 35 36 36 37 39 40 38 38 42 44 40 38 39 40 41 44 44 44 47 49 49 51 57 62 61
21 20 29 46 57 58 61 65 60 58 64 67 65 63 61 63 62 54 50 52 51 52 58 58 52 51 54 57 61 65 65 61 57 53 49 46 46 48 50 52 52 50 45 44 46 48 50 49 48 50 53 52 49 49 47 46 49 48 42 39 38 37 38 40 42 42 42 43 43 41 43 49 50 45 42 42 42 44 47 48 47 48 49 48 48 50 55 59
Wind_Speed
16 16 15 15 15 15 15 15 15 15 14 14 13 13 12 12 11 11 11 11 11 11 10 10 10 10 10 11 11 12 13 13 14 12 13 13 12 12 12 14 14 14 14 15 15 14 13 13 12 12 13 13 12 10 10 14 17 15 16 19 19 20 18 14 12 12 15 15 7 5 2 3 2 2 2 3 3 6 9 14 16 18 16 12 10 9 9 10
15 16 15 15 15 15 15 15 15 15 15 14 14 13 12 11 11 11 11 10 10 10 10 10 10 10 10 11 11 11 12 12 12 11 12 12 10 11 12 12 13 12 12 12 13 13 13 13 12 11 12 12 11 9 10 11 15 17 17 19 22 21 17 13 11 13 19 18 10 6 3 3 5 4 7 6 4 4 8 12 16 22 19 14 12 12 12 12
14 15 15 15 15 15 14 14 14 15 14 14 13 13 12 11 11 10 10 10 10 9 9 9 10 10 10 11 10 11 11 10 10 9 10 10 9 10 10 10 11 11 11 12 14 14 14 15 11 6 6 8 9 8 7 8 11 14 16 21 23 21 17 14 12 14 20 16 8 5 4 2 5 6 7 9 9 7 10 15 17 21 20 20 20 19 16 14
13 13 14 14 14 14 14 14 14 14 14 14 13 12 11 11 10 10 10 9 9 9 9 9 10 10 10 10 10 9 9 8 6 6 7 8 8 9 9 9 9 10 11 13 15 15 17 17 12 4 7 7 7 7 9 10 10 13 16 20 19 16 18 17 16 19 17 13 13 12 12 7 4 5 7 11 13 10 12 16 17 19 17 18 22 21 16 14
12 12 13 13 14 14 14 13 13 13 13 13 12 11 10 10 10 9 9 9 9 9 8 9 9 9 10 9 8 8 8 5 2 3 4 5 7 8 8 8 8 10 11 13 14 15 17 17 15 10 12 12 10 8 11 12 11 15 17 18 15 14 18 18 19 20 15 12 17 17 16 14 10 8 9 9 11 12 13 15 17 17 10 9 15 18 15 14
11 11 12 12 13 13 13 13 12 12 12 11 11 10 10 9 9 9 9 9 9 8 8 8 9 9 9 8 8 8 7 4 2 3 4 4 5 5 6 7 8 10 11 13 13 14 17 16 15 14 14 14 15 13 11 12 14 19 19 18 16 16 20 20 19 20 19 19 21 22 21 21 19 14 11 11 12 16 17 17 19 13 2 3 10 15 15 14
10 11 11 11 11 12 12 11 11 11 11 10 10 9 9 9 8 8 8 8 8 8 7 8 8 9 8 8 8 7 7 7 7 6 5 4 3 3 5 6 9 10 10 12 13 15 15 12 12 13 11 11 13 14 12 12 15 20 20 18 18 19 19 19 18 18 19 17 16 22 26 25 21 16 14 12 14 20 22 20 19 11 3 5 10 15 15 15
11 11 11 11 10 10 10 10 10 9 9 9 9 8 8 8 8 8 8 8 8 7 7 7 7 8 8 8 7 7 8 7 6 6 5 4 3 3 4 6 9 9 10 11 12 16 14 9 9 10 8 8 7 7 7 9 15 19 23 20 17 18 19 19 19 18 18 16 14 17 22 21 17 16 16 11 14 20 20 17 16 15 11 7 10 15 15 15
11 11 11 11 10 10 9 9 9 9 8 8 8 8 8 8 8 8 8 8 8 7 7 6 7 7 7 7 6 7 8 5 5 7 4 3 3 4 5 6 8 9 12 12 12 15 13 9 7 4 3 6 6 8 10 14 17 17 20 22 18 17 20 21 19 19 19 19 19 17 18 17 12 15 14 13 18 20 16 13 14 18 16 10 12 14 15 17
11 11 11 11 10 10 9 9 9 9 8 8 7 7 8 7 7 8 8 8 7 7 7 7 6 7 7 7 6 6 7 7 5 5 3 1 2 4 4 6 8 11 12 13 14 13 13 9 5 3 10 12 12 17 18 16 16 13 14 19 20 18 20 18 17 19 19 17 17 17 17 14 11 13 12 15 21 18 15 13 14 17 16 12 13 14 16 18
11 11 11 10 10 9 9 8 9 9 8 8 7 7 7 7 7 7 8 7 7 7 7 7 6 7 7 7 6 5 6 7 2 1 3 2 2 4 4 6 9 11 12 15 14 10 10 8 5 10 12 13 14 13 12 13 15 14 13 17 18 18 19 19 21 19 17 15 15 16 15 14 14 15 14 19 23 18 15 16 16 16 16 16 16 16 16 16
11 11 10 10 10 9 9 8 9 9 9 9 8 8 7 7 7 7 8 7 7 7 7 7 6 7 7 6 6 4 7 9 3 2 2 1 1 3 4 7 9 12 14 12 7 3 8 10 9 16 13 10 11 9 9 10 13 15 17 19 17 19 22 23 23 20 19 17 15 14 14 16 17 18 21 21 21 20 17 15 14 15 17 18 18 19 17 14
11 11 10 10 9 9 9 8 8 9 10 10 10 9 8 8 7 7 8 7 7 7 7 7 6 7 7 7 5 4 6 9 5 1 0 1 2 3 5 9 12 15 16 13 7 4 8 11 15 18 16 11 12 12 11 9 10 11 14 19 19 22 25 23 21 18 19 18 16 15 15 18 15 14 21 22 19 19 16 12 12 15 15 15 17 18 17 15
10 10 10 9 9 9 9 9 8 8 9 10 11 11 10 8 8 8 7 7 7 7 7 7 7 7 7 7 5 2 3 5 5 3 1 2 3 4 6 11 15 16 16 16 14 11 9 14 18 18 18 15 13 12 10 8 10 9 11 17 19 23 20 14 17 19 18 14 13 16 16 17 14 14 21 22 19 16 12 10 11 10 9 9 12 16 18 18
9 9 9 9 8 8 8 8 8 8 8 8 10 10 10 9 8 8 8 7 7 7 8 8 8 8 7 6 6 4 3 4 4 4 3 3 5 7 6 8 12 12 14 17 18 13 12 16 19 17 16 10 7 9 9 8 10 11 15 17 19 23 18 10 15 21 18 14 15 19 16 16 13 14 20 22 17 14 9 8 9 7 7 6 7 12 16 18
8 8 8 8 8 7 7 7 8 7 7 6 6 6 7 9 9 8 8 7 7 7 8 9 8 7 6 5 5 4 4 4 4 4 3 3 6 6 4 4 8 8 11 16 17 12 10 12 14 14 12 6 8 12 14 14 14 15 19 21 18 22 24 20 16 22 14 10 19 21 14 16 14 11 19 21 15 13 8 6 9 7 5 5 5 8 11 14
7 7 7 7 7 7 7 7 7 7 6 4 3 2 2 4 6 8 8 7 7 7 8 9 7 6 5 4 6 7 5 5 5 5 5 6 6 4 4 1 7 7 7 10 9 6 4 5 7 11 7 5 9 12 16 18 18 15 18 25 20 20 23 15 15 22 15 11 22 21 14 14 11 6 16 16 10 11 7 6 9 6 3 4 5 7 9 11
7 7 7 7 7 7 7 6 6 5 4 2 1 3 5 4 2 4 7 8 8 8 9 9 6 4 2 6 8 6 4 3 4 4 6 6 6 4 5 5 5 5 3 2 3 3 2 2 5 6 6 8 9 9 15 19 15 11 12 17 17 21 17 17 19 20 17 15 19 17 12 8 7 8 12 8 5 5 6 8 9 6 4 3 5 7 7 9
7 7 7 7 6 6 6 5 4 3 2 1 3 6 7 6 6 5 6 7 9 9 8 7 6 5 3 9 8 3 1 1 2 3 6 7 8 11 10 8 4 1 2 1 2 4 3 3 5 8 8 9 10 11 14 14 11 9 11 9 11 19 11 10 15 14 14 14 13 11 13 8 8 10 7 9 12 11 8 9 10 8 7 6 4 5 5 6
8 7 7 6 6 6 6 5 4 2 1 3 6 6 5 5 7 8 9 7 9 11 9 8 9 8 5 9 6 1 3 5 6 4 6 8 10 14 13 10 8 6 8 8 5 3 4 5 8 12 9 7 9 11 11 9 9 11 12 8 9 17 14 2 10 16 13 10 8 8 13 11 10 10 10 15 16 14 13 11 11 9 7 6 4 4 4 4
9 8 8 7 6 6 5 5 5 3 1 4 6 4 1 2 6 10 13 7 8 13 14 10 9 10 8 9 2 7 7 9 8 9 8 8 10 13 12 9 10 11 10 9 10 8 9 11 12 13 12 10 11 10 9 10 11 13 15 12 10 14 13 4 7 10 9 10 8 9 11 10 11 7 7 12 9 10 16 13 10 8 6 7 5 4 5 5
9 8 8 7 6 5 5 5 4 3 2 2 4 2 3 4 3 9 16 10 8 13 18 14 9 11 12 14 7 12 13 11 9 12 10 10 11 12 12 8 9 12 8 5 8 10 15 17 14 9 9 11 13 14 14 14 14 15 16 16 14 11 8 2 1 4 5 6 8 11 12 12 12 7 2 7 6 6 12 11 10 8 6 8 9 9 8 8
8 8 8 7 7 5 5 4 3 3 2 1 2 3 7 7 6 10 15 14 10 11 18 19 15 15 15 12 8 13 13 12 11 11 10 10 11 11 13 10 7 8 7 8 9 12 16 16 11 6 9 12 14 15 15 14 15 14 14 14 15 13 10 7 3 2 4 4 5 9 16 17 16 9 4 5 7 5 7 8 8 7 7 11 13 11 9 9
8 7 7 7 7 5 4 4 3 2 2 3 4 7 9 7 9 11 11 15 14 10 12 15 16 18 17 15 14 16 15 14 14 13 12 10 9 11 15 15 12 10 12 14 14 15 16 12 9 6 11 14 15 15 13 12 12 10 8 10 13 15 14 11 4 2 2 3 4 8 15 19 20 14 7 8 8 5 8 9 7 8 11 14 14 12 9 9
9 7 6 6 6 6 4 4 2 2 5 5 6 11 12 10 11 12 11 15 15 8 7 10 16 18 15 16 17 17 16 16 16 17 18 14 8 9 13 14 13 16 18 17 19 23 19 13 9 8 9 9 10 10 8 8 10 9 7 9 10 13 16 13 8 5 5 6 5 5 8 13 19 19 13 12 10 11 15 16 15 13 12 16 19 16 12 10
9 8 7 6 6 6 4 3 1 5 4 3 6 7 9 11 11 11 12 14 15 9 6 9 12 14 13 15 15 13 15 17 15 16 19 22 14 9 13 14 12 14 16 13 16 20 19 16 15 13 10 8 8 7 5 6 9 11 10 8 9 11 13 14 12 9 6 5 5 4 5 7 14 15 12 12 12 16 21 20 15 13 13 15 17 16 13 12
10 9 7 6 6 5 4 3 4 7 7 5 4 4 10 8 8 9 9 9 10 7 7 11 11 11 14 17 16 12 13 11 9 13 18 24 18 12 17 20 17 14 13 13 15 11 9 12 14 12 10 8 10 12 10 10 12 14 13 11 13 14 11 9 10 10 10 10 9 8 8 8 14 14 12 12 12 15 19 19 15 14 13 14 17 16 14 12
11 10 9 7 6 6 5 5 5 8 8 8 9 11 11 8 8 7 5 3 3 3 7 13 11 10 10 14 18 17 12 6 7 12 14 18 16 13 18 22 21 17 12 14 17 11 7 8 7 5 6 7 11 12 11 11 12 12 10 10 12 14 12 9 10 11 12 10 9 9 10 7 11 15 14 12 14 15 15 19 16 14 11 15 19 17 15 14
12 11 10 9 8 6 6 7 7 9 10 11 11 10 9 8 7 3 2 1 2 2 6 11 12 10 8 12 17 18 15 9 9 11 12 12 12 14 18 18 18 19 15 13 15 14 12 12 8 4 5 7 9 10 11 13 17 16 11 8 8 8 11 12 10 11 11 7 6 9 11 7 7 12 13 11 12 12 13 14 11 11 9 15 19 17 15 14
14 13 12 10 9 8 8 8 8 10 13 12 8 6 6 7 5 2 1 1 4 5 5 10 13 11 9 13 16 17 18 15 10 10 14 13 12 14 17 16 17 17 15 12 13 14 13 11 10 10 9 8 10 12 10 8 10 13 10 9 10 9 11 14 14 12 8 5 5 8 11 10 6 9 12 12 10 9 9 10 9 9 7 9 15 15 14 10
16 15 14 12 11 9 9 9 8 9 10 9 7 6 7 6 4 3 2 2 7 7 6 9 10 12 12 15 18 16 16 16 13 13 15 14 12 15 16 15 16 16 14 14 14 11 11 12 11 12 13 11 12 16 13 6 3 4 3 5 10 9 9 12 13 9 4 3 5 6 8 9 5 8 10 10 8 9 10 9 11 12 10 11 12 12 10 8
18 18 16 15 13 11 10 10 9 7 8 7 7 7 6 4 5 8 6 5 6 4 7 10 7 12 16 16 18 18 14 15 17 17 16 15 13 13 16 15 13 12 11 12 11 7 9 12 10 10 12 10 8 11 12 6 4 5 5 7 8 6 4 4 3 2 3 3 5 7 8 8 6 9 9 9 8 9 9 8 12 18 17 13 14 16 16 13
17 18 18 17 16 13 10 11 10 9 8 7 7 8 7 3 4 11 11 8 5 5 5 9 7 10 17 18 18 17 16 17 18 17 16 17 14 12 15 15 12 12 9 8 9 8 7 10 10 11 13 11 8 8 10 8 6 8 11 12 9 2 2 1 2 2 3 5 8 9 8 8 9 7 5 7 8 10 10 12 14 17 19 15 14 16 15 14
17 18 19 19 18 15 12 11 11 11 10 9 8 8 8 6 7 11 12 11 11 9 11 12 10 11 15 20 17 15 17 19 18 16 15 16 16 14 14 13 13 15 14 10 7 7 7 8 10 10 9 10 9 6 6 8 8 9 12 13 12 8 3 3 3 2 2 5 9 6 3 4 5 2 3 5 8 10 11 16 18 16 18 16 14 16 17 18
17 17 18 18 18 16 14 12 11 12 12 10 11 11 12 11 11 12 12 11 11 12 14 14 13 13 13 15 16 16 18 18 15 15 16 17 18 16 16 15 14 15 15 11 6 8 11 11 11 8 5 8 10 4 3 6 7 7 8 8 9 10 9 7 5 4 6 4 5 6 6 4 3 2 6 7 10 12 10 12 15 14 16 17 15 16 18 20
18 18 17 16 16 16 15 13 13 13 14 12 13 16 17 16 14 11 10 9 10 14 14 8 9 14 14 12 14 15 17 17 14 14 16 17 19 19 18 17 16 16 15 11 7 8 10 10 11 9 8 11 9 5 6 7 4 4 5 6 4 4 7 6 5 6 7 2 2 9 10 8 6 6 9 10 11 13 11 10 9 10 13 17 18 18 19 19
17 18 17 15 13 14 14 14 14 15 15 15 17 18 20 19 17 14 12 13 14 16 16 11 8 10 12 12 11 11 14 14 13 14 16 16 15 16 17 16 17 16 14 13 12 8 9 13 13 7 8 12 9 7 10 10 6 5 4 6 6 3 5 4 2 2 1 0 3 8 8 6 6 6 10 13 13 14 15 14 14 15 17 18 19 21 21 18
17 17 16 13 11 12 15 15 16 17 17 18 20 20 21 20 18 17 16 15 14 15 16 15 10 8 10 12 13 10 10 11 11 12 14 14 12 14 15 13 12 14 11 10 9 4 5 12 13 7 6 7 7 9 10 7 6 7 8 9 7 3 3 4 2 1 1 1 2 5 5 2 3 1 5 11 13 12 12 15 18 19 20 19 18 18 16 13
15 15 13 9 8 11 15 15 14 15 17 19 20 20 20 21 19 15 13 14 15 17 17 15 12 11 11 12 14 13 11 12 14 14 14 12 11 14 14 7 7 12 13 11 7 4 3 7 10 9 8 7 6 10 11 6 5 7 8 11 8 4 3 2 2 3 3 2 1 3 2 3 7 7 3 6 12 12 12 15 17 19 19 17 16 14 13 10
13 13 9 5 7 10 11 11 11 13 16 19 20 19 18 19 17 13 12 15 17 16 15 13 12 13 12 10 10 13 14 13 14 13 12 10 8 12 14 10 6 6 9 11 8 8 7 6 7 9 8 8 7 6 6 5 5 6 7 8 7 5 4 2 4 4 1 1 2 1 1 2 5 7 4 4 12 13 11 11 11 15 17 16 15 13 12 9
10 8 3 4 8 8 6 9 13 15 17 19 20 20 18 17 16 16 16 15 15 13 12 13 14 14 16 13 10 11 11 11 11 11 12 12 10 8 8 10 10 8 9 9 9 9 7 3 5 8 9 11 10 7 6 6 5 8 11 9 4 7 5 1 5 9 6 3 0 1 1 3 1 3 2 2 7 9 11 11 13 15 16 15 15 14 11 9
6 4 6 7 9 9 8 11 15 15 16 18 18 17 16 15 15 17 16 13 12 12 11 13 14 14 15 15 13 12 9 8 10 11 11 13 13 8 3 5 8 10 11 7 4 6 6 2 4 8 11 13 14 12 12 11 9 11 13 11 5 7 6 0 2 6 8 7 4 1 1 4 5 5 4 4 3 5 9 15 20 19 17 17 17 17 14 11
7 10 10 8 8 9 12 14 14 14 16 16 15 15 15 16 16 16 15 14 14 13 11 11 12 13 14 12 10 10 9 10 12 12 10 3 7 8 7 7 8 11 12 7 4 6 6 5 8 11 12 14 16 15 15 14 11 13 10 11 8 6 5 4 7 10 10 6 3 2 1 3 4 4 4 4 3 5 8 11 17 18 17 17 17 18 17 13
7 12 11 9 9 9 11 13 13 14 15 14 15 15 15 16 19 18 16 15 14 13 12 11 11 12 11 9 8 8 8 8 8 10 10 2 5 5 9 10 10 12 13 11 9 8 6 4 5 7 7 9 10 9 8 6 4 8 5 4 6 5 4 7 9 9 6 2 1 0 2 3 4 4 1 1 3 3 6 7 12 15 14 15 18 19 18 15
6 9 8 7 9 10 9 10 12 14 14 14 17 18 16 13 15 16 16 15 14 13 12 10 9 9 7 7 9 9 8 9 8 7 8 5 3 7 11 11 11 13 13 10 10 10 8 6 6 3 1 2 4 3 5 8 8 7 8 7 2 4 6 8 8 7 4 2 2 1 4 6 6 5 2 2 5 7 3 6 11 13 11 13 16 16 15 13
5 6 8 8 11 12 7 6 9 13 15 17 17 17 16 14 11 12 14 12 12 16 14 11 10 8 6 6 8 9 9 8 7 7 7 6 6 6 8 9 8 11 12 10 11 11 11 12 12 10 8 8 9 10 11 14 15 13 11 10 7 6 8 7 7 9 6 4 6 5 1 4 5 5 6 2 1 3 3 4 9 12 13 12 12 12 12 13
5 4 8 9 11 14 9 5 7 6 5 10 12 9 8 9 9 9 11 10 10 15 14 9 8 7 5 9 9 10 12 11 8 8 7 6 3 1 7 8 6 7 9 10 12 12 12 14 15 16 18 17 16 17 17 16 17 17 17 15 12 12 13 12 11 11 9 7 6 4 2 2 2 3 5 5 3 3 3 7 7 9 12 13 12 11 11 13
4 4 7 6 6 10 8 7 8 5 2 3 5 5 3 3 4 4 5 6 8 12 11 4 3 5 6 9 8 8 12 15 13 13 13 9 3 3 6 4 3 3 4 6 10 12 11 12 12 13 15 16 15 15 15 15 16 16 17 16 14 13 14 13 12 11 8 9 8 6 9 11 11 8 7 7 6 4 4 6 8 8 11 12 12 12 11 12
4 5 6 7 6 6 3 5 6 6 5 4 3 3 5 5 6 5 4 5 6 10 12 5 3 5 7 9 9 7 6 7 7 10 15 15 10 4 2 2 1 1 3 5 4 7 8 7 7 9 11 11 12 12 12 12 13 15 16 15 14 14 14 13 12 12 10 12 12 9 12 14 10 7 10 12 9 6 9 10 6 6 10 12 13 14 14 13
4 4 6 7 6 5 1 7 7 5 5 5 3 1 1 5 7 6 5 5 6 5 11 11 9 8 2 5 8 5 3 6 4 6 12 16 13 8 4 3 3 3 2 1 1 5 7 5 4 7 9 11 10 10 11 10 12 15 16 15 14 16 18 17 14 14 14 14 13 10 10 10 9 9 12 14 13 11 13 14 11 9 10 9 9 12 16 19
6 3 1 0 1 3 6 9 5 3 3 3 3 2 2 5 7 3 4 3 2 5 2 9 14 11 5 5 9 6 5 7 6 7 11 14 14 11 8 5 4 5 6 5 5 4 4 7 8 8 8 9 7 7 9 12 14 16 15 14 15 16 17 16 14 14 13 11 12 11 8 9 10 12 14 15 17 16 13 13 14 13 12 12 12 13 17 22
6 6 5 6 10 11 11 8 2 2 4 5 4 3 3 6 5 4 6 6 5 4 3 4 10 12 13 14 12 9 8 9 9 10 13 15 16 15 13 9 6 6 5 5 8 7 4 6 8 7 7 9 8 8 10 14 13 11 9 10 13 15 15 12 10 10 11 10 10 8 3 6 7 7 11 12 14 15 12 13 16 15 12 13 16 16 15 17
Wind_Direction
293 291 288 285 283 281 279 278 277 277 276 276 275 274 275 279 283 287 290 292 293 293 292 291 289 287 284 280 276 274 271 269 268 267 267 261 256 253 244 242 241 235 233 231 229 225 221 220 219 217 220 222 216 205 206 194 182 192 219 239 245 239 234 224 227 239 263 294 306 290 269 153 118 140 349 355 339 327 277 274 277 268 269 259 259 275 262 243
295 293 289 287 284 281 279 277 277 275 274 273 272 271 272 274 277 281 286 289 291 291 290 289 289 287 284 281 279 276 274 272 270 268 266 265 260 251 242 239 239 234 230 225 220 218 215 211 207 211 216 215 211 196 197 199 191 195 212 235 243 240 235 220 223 252 279 304 312 281 329 326 269 270 293 286 295 300 264 273 272 264 263 252 258 273 270 253
295 293 291 288 285 282 279 277 276 274 272 271 270 270 269 269 273 276 281 284 287 288 287 287 287 285 283 281 278 277 276 273 274 272 265 264 259 252 247 240 233 230 223 214 211 205 201 197 186 197 229 214 202 190 195 210 214 215 220 232 239 243 248 239 238 277 290 291 291 242 197 278 259 249 292 288 274 264 270 280 269 262 263 259 262 270 271 255
298 295 292 289 286 283 279 277 274 272 270 269 268 267 266 265 268 272 276 280 283 283 284 286 286 285 283 280 278 275 273 274 278 269 261 259 254 248 244 237 229 224 214 211 210 202 201 194 172 191 265 247 209 199 211 220 233 237 235 240 248 254 254 251 259 291 300 264 267 257 224 238 234 231 290 284 277 278 275 276 269 269 273 265 261 261 258 250
305 300 296 292 288 283 279 275 271 270 267 265 264 262 261 261 263 268 272 276 278 280 281 283 285 285 281 277 274 268 268 278 262 242 268 264 253 247 240 233 224 216 209 209 206 204 207 188 166 188 231 238 226 222 220 219 234 240 244 258 268 269 261 259 261 280 303 281 272 267 249 255 251 263 286 267 278 286 265 258 265 274 282 272 258 253 244 238
316 311 304 298 292 285 279 274 270 268 264 262 259 256 254 255 260 264 267 271 274 276 278 280 282 282 279 274 267 263 261 262 248 268 290 275 260 255 244 232 222 217 210 207 198 203 208 187 171 184 209 226 224 222 214 212 233 242 250 261 262 268 269 269 268 272 290 293 282 272 264 264 264 268 268 264 280 273 255 251 263 274 271 242 247 243 240 240
326 323 316 309 300 290 282 275 270 266 263 259 254 250 248 249 254 258 262 266 270 273 275 278 280 280 276 269 263 256 251 258 272 283 280 273 271 261 255 239 227 215 204 204 193 197 200 182 180 186 199 219 221 216 207 212 234 244 252 259 259 263 264 265 275 277 278 283 278 268 264 263 266 263 259 274 282 263 252 250 258 273 252 231 242 240 244 249
327 328 326 321 311 300 288 278 271 265 261 255 250 247 244 246 250 254 259 262 266 270 271 275 278 278 272 266 258 246 250 256 270 283 285 276 258 249 250 235 228 212 199 194 189 199 186 156 173 179 194 212 214 212 210 236 245 247 255 265 267 259 254 255 265 269 265 263 260 265 272 271 262 252 251 258 268 260 250 244 249 263 268 249 243 241 239 242
322 324 327 327 322 312 296 280 269 262 258 253 248 244 243 245 248 252 257 260 265 267 269 271 272 273 268 262 246 242 262 272 278 290 295 271 256 250 242 233 221 201 190 175 185 197 164 132 149 146 268 246 241 253 253 263 262 256 256 258 260 260 258 252 256 265 263 265 268 268 275 275 253 242 244 240 256 257 242 243 249 256 264 254 238 232 226 230
316 317 320 323 324 320 304 285 268 259 255 252 249 246 244 244 246 252 255 259 262 265 267 266 268 270 263 253 239 245 283 299 295 300 301 283 277 253 234 232 209 192 185 171 179 176 142 137 168 264 291 271 263 260 253 258 261 257 254 250 250 262 268 257 259 264 262 271 270 259 263 268 251 242 241 234 244 243 229 242 253 252 260 259 243 230 226 228
311 311 312 315 319 320 310 290 269 257 253 252 249 246 244 243 246 249 253 257 259 263 265 263 267 265 257 251 244 250 299 313 327 296 281 271 259 247 228 225 203 181 178 176 173 156 144 157 219 257 258 257 254 248 250 257 254 248 252 259 253 255 257 250 255 251 250 266 257 252 266 264 250 243 239 234 232 227 229 244 249 249 256 262 253 241 240 241
305 305 306 307 312 315 312 298 277 261 253 251 247 245 244 243 244 247 252 254 255 259 261 261 261 260 253 248 253 260 288 306 337 119 235 246 242 236 199 202 196 178 173 165 152 164 187 183 227 242 227 236 235 223 252 258 259 256 250 262 266 258 251 244 247 241 238 248 242 248 265 254 250 246 234 229 226 223 234 244 247 257 261 262 260 249 247 250
301 300 300 301 306 310 309 303 289 271 258 252 248 246 244 244 244 246 249 251 254 255 257 260 255 256 250 242 256 266 273 292 313 29 199 244 240 215 193 191 183 175 168 149 145 219 225 216 231 231 215 217 217 224 249 247 260 261 243 255 267 264 260 250 246 247 241 238 235 237 246 245 240 234 225 222 225 229 239 248 255 272 271 263 263 251 242 244
301 297 297 298 301 305 306 305 299 288 272 259 252 247 244 245 246 245 247 249 250 251 254 256 250 249 246 244 261 281 272 284 298 315 268 230 216 194 189 192 181 176 174 160 169 196 219 234 236 227 215 213 210 220 240 246 246 244 242 253 258 260 265 255 239 243 239 232 228 221 232 244 227 222 228 222 224 230 242 255 260 278 286 274 260 244 239 241
306 301 298 297 298 303 307 305 303 299 290 276 263 254 248 246 243 242 244 244 246 249 250 248 246 248 249 255 268 263 251 268 284 282 252 225 213 191 166 180 181 184 189 171 171 186 199 226 237 225 210 202 208 235 262 275 253 243 250 253 253 253 265 283 242 228 234 242 224 210 227 248 239 235 224 211 217 229 233 255 270 290 304 297 254 236 238 239
319 311 303 300 300 302 305 306 305 304 306 301 287 269 255 247 242 240 240 241 244 243 247 248 246 251 253 257 277 274 250 253 260 242 216 198 187 162 120 161 175 182 190 178 183 199 206 226 235 211 197 200 219 247 268 270 263 252 247 255 258 251 263 281 245 210 218 230 201 203 238 256 260 253 214 206 218 224 220 262 282 289 297 297 263 237 232 231
333 324 317 310 303 300 300 302 302 309 318 319 319 317 292 260 249 243 240 237 238 241 246 245 242 251 263 297 312 299 279 260 242 211 186 200 182 114 23 215 154 149 165 171 181 198 210 209 199 186 192 236 220 236 259 257 263 266 253 254 261 265 261 245 196 193 201 190 186 207 262 271 266 227 193 203 207 204 224 274 268 257 263 291 269 246 232 229
337 335 334 326 318 309 301 300 301 312 323 321 32 68 67 52 356 277 254 241 234 236 239 236 226 229 271 359 332 302 287 247 211 194 172 192 184 149 296 284 125 116 146 133 112 135 212 183 173 201 231 250 226 229 252 252 263 293 290 264 271 296 272 200 184 191 194 190 189 215 269 292 262 194 170 182 190 206 263 262 239 224 217 249 267 258 246 229
325 329 335 338 341 333 326 322 310 308 306 238 122 100 86 68 31 347 282 251 239 230 230 233 203 184 86 33 0 5 64 251 206 199 167 164 163 169 229 247 168 175 235 226 68 131 203 217 216 237 224 226 235 238 250 256 262 284 306 296 296 318 310 207 202 184 178 189 186 221 256 273 255 231 220 237 247 259 259 233 219 213 213 219 245 254 248 222
308 311 320 329 339 347 355 1 357 353 301 165 140 116 94 75 38 342 292 258 244 225 214 225 202 183 107 51 359 50 156 278 282 243 192 178 177 179 204 207 178 223 236 233 245 216 257 256 243 246 236 236 244 239 241 253 263 265 283 293 296 321 335 316 167 157 168 181 169 222 243 247 243 243 247 235 241 247 228 214 207 206 220 222 217 218 233 227
301 301 306 312 323 337 349 6 19 23 96 166 162 142 77 67 49 330 295 264 234 219 209 219 214 201 158 120 207 242 239 271 261 229 220 201 189 189 199 185 181 219 233 226 229 239 253 254 256 249 246 257 255 252 256 261 269 269 281 288 286 319 341 11 131 146 173 185 197 229 242 260 249 244 236 209 218 233 215 207 202 205 228 237 254 254 242 234
300 298 297 301 309 320 333 352 13 18 53 163 192 181 325 332 22 310 289 274 243 220 211 212 206 197 166 137 180 243 254 263 237 217 220 207 194 193 201 200 196 209 216 213 225 238 239 248 268 259 243 258 259 268 278 280 281 274 283 289 278 301 338 325 188 101 120 174 228 248 256 270 255 260 290 195 208 224 212 223 230 220 221 242 275 279 250 232
300 298 295 295 298 309 323 333 356 12 56 107 229 282 305 308 318 297 285 285 273 234 221 220 211 199 175 154 204 239 241 248 242 226 219 210 200 191 199 217 214 198 205 218 222 227 231 248 282 273 240 247 250 262 278 289 291 281 283 286 269 272 306 320 287 123 108 168 220 245 250 257 250 258 312 220 205 188 202 227 245 259 275 275 276 269 251 239
299 299 294 293 294 300 308 319 340 12 60 48 4 330 314 310 318 307 297 296 284 251 238 234 225 219 200 189 217 231 233 244 239 230 235 222 196 189 195 209 224 229 230 230 230 226 230 256 284 250 222 229 243 261 281 300 297 281 271 277 265 260 283 314 311 264 315 279 241 232 244 252 243 241 277 262 230 229 224 214 238 284 289 274 256 241 233 232
298 298 297 294 290 291 296 311 322 82 76 66 34 357 334 316 312 313 316 307 293 274 264 251 234 232 218 202 216 230 242 254 232 224 246 245 217 208 204 205 225 235 232 236 242 238 237 249 248 223 213 232 259 270 287 308 305 289 261 266 271 269 282 292 284 284 317 322 300 237 239 257 244 242 267 276 267 261 246 241 252 260 257 249 242 239 227 207
293 294 298 295 290 288 283 296 207 157 150 125 75 22 314 295 303 313 320 309 299 287 256 248 234 228 221 206 205 219 239 252 228 209 238 249 245 239 218 213 229 235 233 244 255 247 243 241 230 226 233 244 251 252 264 279 283 283 273 266 269 281 293 285 278 291 296 303 308 245 218 260 257 253 262 266 270 261 246 242 237 217 216 231 242 246 226 204
291 288 292 290 289 287 266 255 183 195 228 218 149 202 248 281 315 319 323 305 300 296 229 222 223 224 225 208 195 205 222 236 218 196 227 244 243 236 221 219 230 242 243 252 264 259 236 228 224 234 252 254 252 255 264 268 262 264 268 272 272 278 294 300 293 293 284 283 285 246 212 237 260 264 264 257 271 270 236 213 202 199 215 234 243 246 229 225
292 286 286 284 283 282 262 244 216 218 235 226 221 237 252 294 314 315 338 300 294 315 220 214 214 220 224 206 206 215 202 191 216 204 220 240 235 227 225 221 228 243 253 258 262 259 247 247 237 243 274 280 275 262 252 256 254 252 259 269 273 267 261 279 299 296 285 276 269 241 214 222 251 259 267 262 272 274 221 193 196 201 219 241 239 241 244 248
289 288 286 282 275 276 267 251 230 217 226 235 246 259 264 278 288 297 15 301 265 301 237 221 216 215 202 194 211 222 208 215 238 202 194 222 224 221 226 226 234 250 263 265 263 258 261 271 265 259 291 291 284 262 246 256 256 246 238 247 278 280 259 260 276 293 293 273 262 257 246 251 255 254 264 260 261 255 201 185 196 192 214 247 235 229 237 230
279 283 285 285 276 272 266 259 244 229 236 248 261 266 250 251 266 259 173 252 292 316 275 234 226 223 202 190 209 226 222 227 236 199 197 219 230 229 230 233 243 258 266 264 271 269 261 268 263 255 267 274 269 259 258 279 264 241 232 257 288 292 270 259 252 262 284 278 258 257 264 280 271 252 259 253 250 245 209 195 203 201 211 225 213 210 212 200
272 273 276 281 277 271 266 265 264 256 256 260 254 245 240 242 243 215 171 266 295 304 258 235 234 228 214 201 210 227 233 230 223 208 211 219 226 235 241 245 247 257 267 271 283 276 251 262 272 264 266 264 258 257 263 289 283 234 227 276 290 289 271 261 249 236 235 273 258 249 294 312 281 258 260 251 250 247 234 214 199 193 166 143 150 156 160 170
270 268 267 271 273 272 270 267 268 266 265 260 244 232 230 235 228 223 233 278 308 306 233 235 242 226 218 211 216 227 232 230 223 215 215 216 217 225 239 248 245 248 265 272 278 277 248 254 262 268 270 258 242 254 263 273 272 264 253 242 258 290 305 280 266 225 220 280 287 275 303 314 287 274 255 232 236 234 225 213 196 192 180 154 142 141 144 163
271 267 264 262 263 266 267 266 265 263 262 255 242 228 215 207 230 234 243 256 279 327 290 259 256 237 222 214 222 232 224 218 223 226 220 219 223 224 234 246 241 239 252 256 270 292 282 264 259 262 261 242 233 252 251 248 252 241 231 224 217 195 49 317 289 325 278 306 320 305 290 282 286 286 234 205 219 225 219 208 196 193 193 186 180 177 172 183
274 267 263 259 257 259 260 260 259 257 259 254 241 223 209 217 239 241 245 243 243 274 292 275 274 271 235 216 222 236 227 218 221 229 225 222 227 217 216 236 243 241 242 238 257 289 285 278 269 262 255 241 247 266 248 252 274 258 235 229 222 207 184 208 210 157 204 280 311 303 228 247 300 306 167 159 167 176 189 199 198 198 200 199 202 208 210 214
274 269 265 260 255 253 252 252 250 249 249 246 236 220 215 229 241 251 263 260 253 273 279 264 265 279 261 231 229 234 230 220 213 224 231 228 229 223 216 228 240 240 235 228 237 254 256 264 261 254 246 234 238 239 218 245 277 282 263 255 242 225 212 205 207 219 231 258 293 265 237 260 312 158 163 162 161 159 156 180 190 191 199 204 206 209 212 217
272 270 266 263 256 248 244 242 240 241 241 241 236 227 225 233 237 249 273 277 286 312 319 293 264 273 273 256 242 236 234 228 220 234 241 231 228 228 225 225 230 233 231 228 234 243 244 252 258 249 217 210 217 217 227 245 291 318 281 287 301 238 212 212 227 240 247 257 250 249 249 248 246 205 182 191 206 205 198 201 203 202 209 209 207 208 210 215
272 269 266 264 258 245 237 234 231 233 233 233 237 237 236 239 240 247 266 276 288 311 320 306 283 277 274 268 260 245 238 233 224 229 236 236 236 230 229 232 227 224 230 238 244 248 259 266 267 259 216 213 226 258 256 260 294 317 286 297 322 289 226 223 226 224 243 263 240 245 238 217 209 200 198 206 211 210 212 222 228 222 219 216 213 218 223 230
269 268 267 263 256 241 230 222 222 228 229 230 237 242 243 242 240 245 256 265 280 299 299 288 279 272 266 270 273 262 240 228 224 227 229 235 237 230 238 246 215 198 205 224 232 234 284 278 264 269 287 247 233 254 250 247 275 272 267 288 310 314 247 229 216 200 195 200 247 257 241 180 87 80 228 215 192 178 186 202 210 206 206 214 221 230 237 240
270 267 270 263 250 240 230 220 216 223 227 231 237 242 246 249 247 248 255 261 274 287 286 280 282 279 267 262 268 272 264 241 235 241 240 235 230 228 237 234 181 187 203 213 231 252 277 285 265 263 290 283 262 257 237 225 280 275 269 273 271 292 307 257 225 206 196 201 241 285 306 50 52 37 341 206 175 164 161 172 194 205 207 216 229 241 244 232
273 263 266 249 225 231 229 220 219 228 234 236 241 243 248 256 258 259 269 276 280 279 268 265 280 295 299 290 274 271 266 251 243 250 252 246 238 236 238 236 222 214 213 218 242 261 253 268 271 258 258 260 272 275 237 239 277 281 290 280 264 295 317 265 299 323 10 127 145 115 26 41 49 41 12 204 186 193 189 172 193 215 215 220 233 245 249 243
274 260 231 180 209 227 223 218 228 239 244 244 248 249 250 258 264 262 265 273 282 282 268 262 269 288 303 307 306 294 272 251 250 257 254 248 250 252 239 236 240 223 204 215 232 244 243 250 264 256 255 257 261 280 294 293 292 287 285 282 299 333 338 355 327 335 344 335 343 106 180 222 176 70 40 200 195 220 232 218 221 227 224 229 238 244 251 258
259 198 148 170 213 231 226 230 241 251 254 252 251 253 256 261 265 264 264 270 282 283 279 273 269 279 292 290 292 303 300 275 264 262 259 250 249 258 223 204 224 201 183 188 202 220 232 245 271 262 259 257 257 269 275 262 274 289 266 245 272 323 328 9 263 295 299 291 278 230 195 217 212 209 235 247 233 256 248 224 222 230 234 237 238 240 246 258
229 178 161 177 211 232 238 240 245 248 254 263 264 258 257 260 260 261 262 266 271 273 275 278 271 273 281 279 276 286 293 286 272 271 288 263 178 200 215 215 222 205 196 210 232 241 251 262 275 272 269 269 264 264 258 246 274 303 271 235 245 279 297 284 268 272 269 252 221 204 198 194 185 190 241 262 253 241 232 216 216 220 225 228 230 236 247 259
227 193 183 188 199 222 246 252 252 248 249 258 264 260 258 259 260 262 263 262 262 265 269 273 271 270 268 263 267 277 289 292 271 262 281 307 132 210 249 244 235 222 220 231 241 253 258 244 266 278 286 292 281 270 264 262 318 346 332 259 219 215 290 310 308 303 283 227 132 132 107 136 135 96 66 341 69 159 207 218 224 224 227 235 240 245 253 261
208 197 197 208 217 229 256 271 267 260 252 252 260 262 263 264 261 258 259 259 254 257 271 286 288 279 265 262 274 274 275 286 287 272 267 274 295 277 262 252 245 235 230 231 242 256 255 229 231 240 208 261 276 296 336 334 333 339 348 349 281 237 295 309 318 323 321 21 357 340 82 115 134 73 31 209 92 86 155 221 234 238 240 245 250 252 255 262
175 179 185 195 211 223 255 298 267 257 257 260 267 268 268 272 267 250 249 255 250 246 260 292 294 276 277 298 290 271 262 269 278 276 264 267 291 279 237 224 226 231 233 237 246 255 257 248 242 237 231 240 257 272 297 315 314 308 315 324 313 299 309 313 311 304 294 309 304 289 14 135 154 67 26 267 195 44 356 280 250 243 238 235 240 251 260 269
157 178 197 189 188 201 221 241 226 234 270 269 267 268 271 276 276 260 251 259 262 248 249 271 270 254 294 314 298 275 268 265 269 271 255 251 285 180 178 188 200 217 226 241 257 263 265 262 253 246 244 248 257 271 284 298 304 302 299 297 293 294 301 304 307 304 289 272 264 227 197 264 281 347 8 354 307 284 333 351 322 266 241 229 230 245 260 267
178 208 222 210 190 204 227 245 231 234 357 344 278 269 280 275 269 279 263 257 266 257 248 247 228 238 286 293 287 287 269 255 259 261 245 238 247 132 152 186 231 241 247 270 275 272 266 260 255 252 256 260 264 273 280 282 284 286 286 286 286 290 299 299 293 298 295 273 268 253 254 281 301 295 286 314 321 276 262 333 340 301 266 251 250 256 257 257
257 250 234 238 242 230 259 329 302 282 303 341 334 299 316 312 279 276 282 283 288 263 251 243 175 213 272 276 268 288 273 232 234 243 235 238 251 248 173 156 186 275 349 355 298 249 247 260 257 249 256 263 262 264 267 270 277 279 274 276 284 286 288 288 281 281 286 286 294 292 266 268 287 286 267 272 284 274 260 265 273 283 283 285 285 275 256 249
309 271 245 256 258 227 79 24 8 337 300 300 321 318 355 345 315 286 267 301 340 303 261 254 221 205 255 294 262 257 133 138 176 222 225 232 240 248 246 227 230 227 205 42 325 233 226 228 228 235 253 267 267 267 274 280 288 285 275 272 280 278 275 280 282 281 283 289 298 296 280 282 290 280 268 264 261 262 266 258 238 232 251 265 279 266 246 249
8 7 335 353 125 126 55 31 4 299 303 336 17 64 100 27 356 306 204 203 76 69 334 263 242 229 232 255 257 248 155 155 198 222 230 235 234 234 234 233 264 254 223 234 270 262 236 237 241 252 271 281 274 269 287 292 285 280 277 275 274 273 273 277 279 276 277 286 290 284 296 330 321 286 271 267 260 259 263 253 237 236 238 232 233 235 236 246
29 35 46 75 75 63 47 37 0 316 23 37 49 70 64 21 353 239 210 202 185 138 55 297 255 245 243 243 254 263 236 215 221 228 234 240 237 232 227 217 217 228 227 254 258 252 251 252 250 256 269 277 272 267 290 300 291 285 292 289 280 275 270 269 274 273 269 272 281 282 309 17 356 292 265 257 248 244 248 247 240 239 240 229 223 226 227 233